• In Hungary
  • List of Countries
  • For 7 days
  • Water Temperature
  • Satellite Maps
  • Weather Map
  • News
  • Weather Widgets
  • user-avatar
    Login

    Hourly Weather Sloboda-Sharhorods'ka

    Today, 23 October, Tuesday

    Time Temperature Precipitation Wind Pressure Humidity
    00:00 +6°C° 0 mm 2 mps 742 mmHg 72%
    01:00 +6°C° 0 mm 2 mps 742 mmHg 73%
    02:00 +5°C° 0 mm 2 mps 742 mmHg 75%
    03:00 +5°C° 0 mm 2 mps 742 mmHg 77%
    04:00 +4°C° 0 mm 2 mps 741 mmHg 78%
    05:00 +3°C° 0 mm 3 mps 741 mmHg 80%
    06:00 +3°C° 0 mm 3 mps 741 mmHg 78%
    07:00 +4°C° 0 mm 3 mps 741 mmHg 76%
    08:00 +4°C° 0 mm 4 mps 741 mmHg 74%
    09:00 +5°C° 0 mm 4 mps 740 mmHg 72%
    10:00 +7°C° 0 mm 5 mps 740 mmHg 70%
    11:00 +8°C° 0 mm 5 mps 740 mmHg 68%
    12:00 +8°C° 0 mm 5 mps 739 mmHg 68%
    13:00 +8°C° 0 mm 5 mps 738 mmHg 69%
    14:00 +9°C° 0 mm 5 mps 737 mmHg 69%
    15:00 +8°C° 0 mm 4 mps 737 mmHg 69%
    16:00 +8°C° 0 mm 4 mps 736 mmHg 69%
    17:00 +9°C° 0 mm 3 mps 735 mmHg 68%
    18:00 +9°C° 0.3 mm 3 mps 734 mmHg 71%
    19:00 +9°C° 0.3 mm 3 mps 733 mmHg 74%
    20:00 +8°C° 0.3 mm 4 mps 732 mmHg 77%
    21:00 +8°C° 0.4 mm 4 mps 731 mmHg 76%
    22:00 +8°C° 0.4 mm 5 mps 730 mmHg 75%
    23:00 +8°C° 0.4 mm 6 mps 730 mmHg 74%

    Tomorrow, 24 October, Wednesday

    Time Temperature Precipitation Wind Pressure Humidity
    00:00 +8°C° 0.1 mm 6 mps 729 mmHg 73%
    01:00 +7°C° 0.1 mm 5 mps 728 mmHg 72%
    02:00 +7°C° 0.1 mm 5 mps 727 mmHg 70%
    03:00 +7°C° 0.2 mm 6 mps 726 mmHg 71%
    04:00 +7°C° 0.2 mm 6 mps 725 mmHg 71%
    05:00 +7°C° 0.2 mm 6 mps 724 mmHg 72%
    06:00 +7°C° 0.9 mm 6 mps 723 mmHg 73%
    07:00 +7°C° 0.9 mm 6 mps 722 mmHg 75%
    08:00 +8°C° 0.9 mm 5 mps 721 mmHg 77%
    09:00 +8°C° 0.7 mm 6 mps 720 mmHg 73%
    10:00 +7°C° 0.7 mm 8 mps 720 mmHg 70%
    11:00 +7°C° 0.7 mm 9 mps 720 mmHg 67%
    12:00 +6°C° 0.1 mm 10 mps 720 mmHg 63%
    13:00 +6°C° 0.1 mm 11 mps 720 mmHg 58%
    14:00 +6°C° 0.1 mm 11 mps 720 mmHg 54%
    15:00 +4°C° 0 mm 11 mps 721 mmHg 55%
    16:00 +3°C° 0 mm 11 mps 722 mmHg 56%
    17:00 +2°C° 0 mm 10 mps 722 mmHg 56%
    18:00 +2°C° 0 mm 10 mps 722 mmHg 58%
    19:00 +2°C° 0 mm 9 mps 723 mmHg 60%
    20:00 +1°C° 0 mm 9 mps 723 mmHg 62%
    21:00 +2°C° 0.6 mm 10 mps 722 mmHg 66%
    22:00 +2°C° 0.6 mm 11 mps 722 mmHg 69%
    23:00 +2°C° 0.6 mm 12 mps 722 mmHg 72%

    Day after tomorrow, 25 October, Thursday

    Time Temperature Precipitation Wind Pressure Humidity
    00:00 +2°C° 0.3 mm 12 mps 722 mmHg 73%
    01:00 +2°C° 0.3 mm 12 mps 723 mmHg 74%
    02:00 +2°C° 0.3 mm 12 mps 723 mmHg 75%
    03:00 +2°C° 0.1 mm 10 mps 724 mmHg 77%
    04:00 +1°C° 0.1 mm 8 mps 725 mmHg 80%
    05:00 +2°C° 0.1 mm 7 mps 726 mmHg 82%
    06:00 +1°C° 0.2 mm 8 mps 726 mmHg 80%
    07:00 +2°C° 0.2 mm 9 mps 727 mmHg 78%
    08:00 +2°C° 0.2 mm 10 mps 728 mmHg 76%
    09:00 +3°C° 0.1 mm 10 mps 729 mmHg 73%
    10:00 +3°C° 0.1 mm 10 mps 729 mmHg 69%
    11:00 +3°C° 0.1 mm 10 mps 729 mmHg 66%
    12:00 +3°C° 0.1 mm 9 mps 730 mmHg 65%
    13:00 +3°C° 0.1 mm 9 mps 730 mmHg 65%
    14:00 +4°C° 0.1 mm 8 mps 730 mmHg 64%
    15:00 +4°C° 0.1 mm 7 mps 730 mmHg 64%
    16:00 +4°C° 0.1 mm 6 mps 729 mmHg 65%
    17:00 +3°C° 0.1 mm 5 mps 729 mmHg 65%
    18:00 +3°C° 0.7 mm 5 mps 729 mmHg 68%
    19:00 +3°C° 0.7 mm 5 mps 728 mmHg 71%
    20:00 +3°C° 0.7 mm 5 mps 728 mmHg 75%
    21:00 +4°C° 0.6 mm 6 mps 727 mmHg 76%
    22:00 +4°C° 0.6 mm 7 mps 727 mmHg 78%
    23:00 +5°C° 0.6 mm 8 mps 727 mmHg 80%

    26 October, Friday

    Time Temperature Precipitation Wind Pressure Humidity
    00:00 +5°C° 0.1 mm 8 mps 727 mmHg 79%
    01:00 +5°C° 0.1 mm 9 mps 728 mmHg 78%
    02:00 +3°C° 0.1 mm 9 mps 728 mmHg 77%
    03:00 +4°C° 0 mm 8 mps 729 mmHg 77%
    04:00 +2°C° 0 mm 8 mps 730 mmHg 78%
    05:00 +3°C° 0 mm 7 mps 731 mmHg 78%
    06:00 +3°C° 0 mm 6 mps 732 mmHg 78%
    07:00 +3°C° 0 mm 5 mps 733 mmHg 79%
    08:00 +4°C° 0 mm 4 mps 734 mmHg 79%
    09:00 +5°C° 0 mm 4 mps 735 mmHg 76%
    10:00 +6°C° 0 mm 5 mps 735 mmHg 73%
    11:00 +7°C° 0 mm 5 mps 736 mmHg 70%
    12:00 +8°C° 0 mm 5 mps 736 mmHg 66%
    13:00 +8°C° 0 mm 5 mps 736 mmHg 62%
    14:00 +9°C° 0 mm 5 mps 736 mmHg 58%
    15:00 +10°C° 0 mm 4 mps 736 mmHg 61%
    16:00 +8°C° 0 mm 4 mps 736 mmHg 64%
    17:00 +8°C° 0 mm 3 mps 736 mmHg 67%
    18:00 +8°C° 0 mm 2 mps 737 mmHg 69%
    19:00 +8°C° 0 mm 2 mps 737 mmHg 71%
    20:00 +7°C° 0 mm 2 mps 737 mmHg 72%
    21:00 +7°C° 0 mm 2 mps 737 mmHg 73%
    22:00 +7°C° 0 mm 2 mps 738 mmHg 74%
    23:00 +5°C° 0 mm 3 mps 738 mmHg 75%

    27 October, Saturday

    Time Temperature Precipitation Wind Pressure Humidity
    00:00 +5°C° 0 mm 3 mps 738 mmHg 75%
    01:00 +5°C° 0 mm 3 mps 737 mmHg 75%
    02:00 +5°C° 0 mm 3 mps 737 mmHg 75%
    03:00 +4°C° 0 mm 3 mps 737 mmHg 75%
    04:00 +4°C° 0 mm 3 mps 737 mmHg 76%
    05:00 +4°C° 0 mm 3 mps 736 mmHg 76%
    06:00 +4°C° 0 mm 4 mps 736 mmHg 74%
    07:00 +5°C° 0 mm 4 mps 736 mmHg 72%
    08:00 +5°C° 0 mm 4 mps 736 mmHg 71%
    09:00 +6°C° 0.1 mm 4 mps 735 mmHg 69%
    10:00 +7°C° 0.1 mm 4 mps 735 mmHg 68%
    11:00 +8°C° 0.1 mm 5 mps 735 mmHg 67%
    12:00 +9°C° 0 mm 5 mps 734 mmHg 65%
    13:00 +10°C° 0 mm 5 mps 734 mmHg 63%
    14:00 +12°C° 0 mm 5 mps 734 mmHg 61%
    15:00 +12°C° 0 mm 4 mps 733 mmHg 61%
    16:00 +12°C° 0 mm 4 mps 733 mmHg 62%
    17:00 +12°C° 0 mm 3 mps 733 mmHg 63%
    18:00 +12°C° 0 mm 4 mps 733 mmHg 62%
    19:00 +12°C° 0 mm 4 mps 733 mmHg 61%
    20:00 +12°C° 0 mm 4 mps 733 mmHg 60%
    21:00 +12°C° 0 mm 4 mps 733 mmHg 60%
    22:00 +12°C° 0 mm 4 mps 732 mmHg 60%
    23:00 +12°C° 0 mm 4 mps 732 mmHg 60%

    28 October, Sunday

    Time Temperature Precipitation Wind Pressure Humidity
    00:00 +11°C° 0 mm 4 mps 732 mmHg 61%
    01:00 +11°C° 0 mm 4 mps 732 mmHg 62%
    02:00 +11°C° 0 mm 4 mps 732 mmHg 63%
    03:00 +11°C° 0 mm 4 mps 732 mmHg 64%
    04:00 +11°C° 0 mm 4 mps 732 mmHg 64%
    05:00 +11°C° 0 mm 4 mps 731 mmHg 65%
    06:00 +10°C° 0 mm 5 mps 731 mmHg 63%
    07:00 +12°C° 0 mm 5 mps 731 mmHg 62%
    08:00 +11°C° 0 mm 6 mps 731 mmHg 60%
    09:00 +13°C° 0 mm 6 mps 731 mmHg 56%
    10:00 +15°C° 0 mm 7 mps 731 mmHg 53%
    11:00 +16°C° 0 mm 7 mps 731 mmHg 50%
    12:00 +18°C° 0 mm 7 mps 731 mmHg 48%
    13:00 +20°C° 0 mm 7 mps 731 mmHg 46%
    14:00 +21°C° 0 mm 6 mps 731 mmHg 44%
    15:00 +20°C° 0 mm 5 mps 731 mmHg 48%
    16:00 +19°C° 0 mm 4 mps 732 mmHg 53%
    17:00 +18°C° 0 mm 3 mps 732 mmHg 57%
    18:00 +18°C° 0 mm 3 mps 733 mmHg 60%
    19:00 +17°C° 0 mm 3 mps 733 mmHg 63%
    20:00 +16°C° 0 mm 3 mps 734 mmHg 66%
    21:00 +14°C° 0 mm 3 mps 735 mmHg 65%
    22:00 +13°C° 0 mm 3 mps 736 mmHg 64%
    23:00 +13°C° 0 mm 3 mps 737 mmHg 62%
    Show more